This is the latest recevied weather packets stored in our database for station/object KJ5BMY-13. If no packets are shown the sender has not sent any weather packets the latest 10 day(s).
| Time | Temp. | Humidity | Pressure | Rain* | Wind** | Luminosity | Snow |
|---|---|---|---|---|---|---|---|
| 1778170865 | 21.11° C | 53% | 1021.7 hPa | 0 mm | - | - | - |
| 1778170561 | 21.11° C | 53% | 1021.7 hPa | 0 mm | - | - | - |
| 1778170258 | 21.11° C | 53% | 1021.6 hPa | 0 mm | - | - | - |
| 1778169954 | 22.22° C | 52% | 1021.9 hPa | 0 mm | - | - | - |
| 1778169651 | 22.78° C | 49% | 1021.7 hPa | 0 mm | - | - | - |
| 1778169346 | 22.22° C | 55% | 1021.7 hPa | 0 mm | - | - | - |
| 1778169043 | 21.67° C | 56% | 1021.5 hPa | 0 mm | - | - | - |
| 1778168740 | 21.11° C | 57% | 1021.7 hPa | 0 mm | - | - | - |
| 1778168437 | 21.67° C | 54% | 1021.8 hPa | 0 mm | - | - | - |
| 1778168134 | 22.22° C | 56% | 1022 hPa | 0 mm | - | - | - |
| 1778167830 | 22.22° C | 52% | 1021.8 hPa | 0 mm | - | - | - |
| 1778167526 | 21.11° C | 53% | 1022.1 hPa | 0 mm | - | - | - |
| 1778167223 | 21.67° C | 55% | 1022 hPa | 0 mm | - | - | - |
| 1778166919 | 21.67° C | 54% | 1022 hPa | 0 mm | - | - | - |
| 1778166616 | 20° C | 59% | 1022.1 hPa | 0 mm | - | - | - |
| 1778166313 | 20° C | 58% | 1022.3 hPa | 0 mm | - | - | - |
| 1778166010 | 20.56° C | 59% | 1022.2 hPa | 0 mm | - | - | - |
| 1778165704 | 19.44° C | 62% | 1022.4 hPa | 0 mm | - | - | - |
| 1778165402 | 19.44° C | 60% | 1022.3 hPa | 0 mm | - | - | - |
| 1778165099 | 20° C | 61% | 1022.1 hPa | 0 mm | - | - | - |
| 1778164796 | 19.44° C | 64% | 1022.5 hPa | 0 mm | - | - | - |
| 1778164493 | 17.78° C | 69% | 1022.2 hPa | 0 mm | - | - | - |
| 1778164190 | 17.78° C | 70% | 1022.2 hPa | 0 mm | - | - | - |
| 1778163885 | 16.67° C | 73% | 1022.4 hPa | 0 mm | - | - | - |
| 1778163583 | 17.22° C | 73% | 1022.4 hPa | 0 mm | - | - | - |
* Rain latest hour (hover to see other rain measurements)
** Current wind speed in m/s (hover to see current wind gust speed)